OpenBCM V1.13 (Linux)

Packet Radio Mailbox

DB0FHN

[JN59NK Nuernberg]

 Login: GUEST





  
UA9FBV > KEPS     11.12.04 08:16l 207 Lines 5449 Bytes #999 (0) @ AMSAT
BID : ORB04345.W
Read: GUEST
Subj: Orbital Elements  04345.WEATHER
Path: DB0FHN<DB0FOR<DB0SIF<DB0EA<DB0RES<ER3KAZ<UA9FBV
Sent: 041211/0608Z @:UA9FBV.PRM.RUS.AS #:12666 [Perm] GATEWAY $:ORB04345.W
From: UA9FBV@UA9FBV.PRM.RUS.AS
To  : KEPS@AMSAT


HR AMSAT ORBITAL ELEMENTS FOR WEATHER SATELLITES
FROM WA5QGD FORT WORTH,TX December 10, 2004
SEND SUBSCRIBE/UNSUBSCRIBE TO majordomo@amsat.org ONLY
BID: ORB04345.W
TO ALL RADIO AMATEURS BT

Satellite: NOAA-10
Catalog number: 16969
Epoch time:      04345.25532517
Element set:     509
Inclination:       98.7619 deg
RA of node:       344.5983 deg
Eccentricity:    0.0012006
Arg of perigee:   326.9879 deg
Mean anomaly:      33.0559 deg
Mean motion:   14.27230540 rev/day
Decay rate:       1.89e-06 rev/day^2
Epoch rev:           94814
Checksum:              328

Satellite: NOAA-11
Catalog number: 19531
Epoch time:      04345.32181017
Element set:     367
Inclination:       98.8586 deg
RA of node:        67.9754 deg
Eccentricity:    0.0012418
Arg of perigee:   123.0666 deg
Mean anomaly:     237.1721 deg
Mean motion:   14.14742010 rev/day
Decay rate:      -1.59e-06 rev/day^2
Epoch rev:           83622
Checksum:              292

Satellite: NOAA-12
Catalog number: 21263
Epoch time:      04345.43008928
Element set:     855
Inclination:       98.6860 deg
RA of node:       331.4294 deg
Eccentricity:    0.0011913
Arg of perigee:   257.8218 deg
Mean anomaly:     102.1627 deg
Mean motion:   14.25436474 rev/day
Decay rate:        4.5e-07 rev/day^2
Epoch rev:           70535
Checksum:              295

Satellite: MET-3/5
Catalog number: 21655
Epoch time:      04345.84787922
Element set:     690
Inclination:       82.5548 deg
RA of node:       291.7027 deg
Eccentricity:    0.0013215
Arg of perigee:   350.0128 deg
Mean anomaly:      10.0715 deg
Mean motion:   13.16996225 rev/day
Decay rate:        5.1e-07 rev/day^2
Epoch rev:           64052
Checksum:              288

Satellite: MET-2/21
Catalog number: 22782
Epoch time:      04345.30650870
Element set:      76
Inclination:       82.5517 deg
RA of node:        50.8183 deg
Eccentricity:    0.0020904
Arg of perigee:   293.8723 deg
Mean anomaly:      66.0259 deg
Mean motion:   13.83575735 rev/day
Decay rate:      -1.16e-06 rev/day^2
Epoch rev:           56945
Checksum:              309

Satellite: OKEAN-4
Catalog number: 23317
Epoch time:      04344.83899827
Element set:     493
Inclination:       82.5407 deg
RA of node:        73.9189 deg
Eccentricity:    0.0023588
Arg of perigee:    43.0442 deg
Mean anomaly:     317.2622 deg
Mean motion:   14.81998579 rev/day
Decay rate:       6.36e-06 rev/day^2
Epoch rev:           54786
Checksum:              350

Satellite: NOAA-14
Catalog number: 23455
Epoch time:      04345.36836936
Element set:     389
Inclination:       99.1177 deg
RA of node:        24.3649 deg
Eccentricity:    0.0009515
Arg of perigee:   167.2439 deg
Mean anomaly:     192.8975 deg
Mean motion:   14.13519173 rev/day
Decay rate:       4.03e-06 rev/day^2
Epoch rev:           51282
Checksum:              329

Satellite: SICH-1
Catalog number: 23657
Epoch time:      04344.80022992
Element set:     296
Inclination:       82.5298 deg
RA of node:       214.7648 deg
Eccentricity:    0.0025231
Arg of perigee:    27.8633 deg
Mean anomaly:     332.3926 deg
Mean motion:   14.81020644 rev/day
Decay rate:       5.04e-06 rev/day^2
Epoch rev:           49992
Checksum:              306

Satellite: NOAA-15
Catalog number: 25338
Epoch time:      04345.47488005
Element set:     836
Inclination:       98.5166 deg
RA of node:       353.5374 deg
Eccentricity:    0.0010367
Arg of perigee:   185.4983 deg
Mean anomaly:     174.6088 deg
Mean motion:   14.24473772 rev/day
Decay rate:        7.8e-07 rev/day^2
Epoch rev:           34188
Checksum:              341

Satellite: RESURS
Catalog number: 25394
Epoch time:      04345.55844211
Element set:     967
Inclination:       98.5635 deg
RA of node:        53.9260 deg
Eccentricity:    0.0001567
Arg of perigee:    25.2492 deg
Mean anomaly:     334.8764 deg
Mean motion:   14.24040201 rev/day
Decay rate:        3.9e-07 rev/day^2
Epoch rev:           33360
Checksum:              285

Satellite: FENGYUN1
Catalog number: 25730
Epoch time:      04345.40403805
Element set:     297
Inclination:       98.6056 deg
RA of node:       348.7727 deg
Eccentricity:    0.0013506
Arg of perigee:   279.9333 deg
Mean anomaly:      80.0316 deg
Mean motion:   14.11784899 rev/day
Decay rate:      -1.15e-06 rev/day^2
Epoch rev:           28787
Checksum:              318

Satellite: OKEAN-0
Catalog number: 25860
Epoch time:      04344.80554250
Element set:     300
Inclination:       97.7775 deg
RA of node:        12.8322 deg
Eccentricity:    0.0002028
Arg of perigee:    94.7415 deg
Mean anomaly:     265.4021 deg
Mean motion:   14.73167626 rev/day
Decay rate:       2.32e-06 rev/day^2
Epoch rev:           29012
Checksum:              264

Satellite: NOAA-16
Catalog number: 26536
Epoch time:      04345.47460338
Element set:     141
Inclination:       98.9877 deg
RA of node:       297.1050 deg
Eccentricity:    0.0009843
Arg of perigee:   238.7126 deg
Mean anomaly:     121.3066 deg
Mean motion:   14.12185905 rev/day
Decay rate:        6.8e-07 rev/day^2
Epoch rev:           21742
Checksum:              307

Satellite: NOAA-17
Catalog number: 27453
Epoch time:      04345.44058163
Element set:     160
Inclination:       98.6832 deg
RA of node:        55.6330 deg
Eccentricity:    0.0011286
Arg of perigee:   239.3684 deg
Mean anomaly:     120.6394 deg
Mean motion:   14.23607074 rev/day
Decay rate:       2.94e-06 rev/day^2
Epoch rev:           12798
Checksum:              305



Read previous mail | Read next mail


 13.09.2026 18:42:03lGo back Go up